Regional Weather Roundup
Issued by NWS

Home | Current Version | Previous Version | Graphics & Text | Print | Product List | Glossary On
Versions: 1 2 3 4 5 6 7 8 9 10 11 12 13 14 15 16 17 18 19 20 21 22 23 24 25 26 27 28 29 30 31 32 33 34 35 36 37 38 39 40 41 42 43 44 45 46 47 48 49 50
000
ASUS43 KLOT 090203
RWRIL

ILLINOIS REGIONAL WEATHER ROUNDUP
NATIONAL WEATHER SERVICE CHICAGO/ROMEOVILLE IL
800 PM CST THU DEC 08 2016

NOTE: "FAIR" INDICATES FEW OR NO CLOUDS BELOW 12,000 FEET WITH NO
SIGNIFICANT WEATHER AND/OR OBSTRUCTIONS TO VISIBILITY.

* THESE STATIONS ARE NOT UNDER NWS QUALITY CONTROL. THEY ALSO MAY NOT
  REPORT WEATHER SUCH AS PRECIPITATION OR FOG.

ILZ001-002-007-009-015-016-024-090300-
NORTHWEST ILLINOIS

CITY           SKY/WX    TMP DP  RH WIND       PRES   REMARKS
MOLINE         CLOUDY    23  13  65 NW14G23   30.49S WCI  11
STERLING*      FLURRIES  22  17  81 W13       30.45S WCI  10
$$

ILZ003-004-008-010-011-017-018-090300-
NORTH CENTRAL ILLINOIS

CITY           SKY/WX    TMP DP  RH WIND       PRES   REMARKS
ROCKFORD       FLURRIES  23  16  74 W14       30.42S WCI  11
FREEPORT*      FLURRIES  22  16  78 W13       30.43S WCI  10
ROCHELLE*      FLURRIES  22  16  77 W17       30.43S WCI   8
$$

ILZ005-006-012>014-019>023-090300-
NORTHEAST ILLINOIS

CITY           SKY/WX    TMP DP  RH WIND       PRES   REMARKS
CHICAGO-OHARE  FLURRIES  24  15  68 W12       30.38S WCI  13
CHICAGO-MIDWAY FLURRIES  24  14  65 W13       30.39S WCI  12
AURORA         CLOUDY    24  17  74 W15       30.41S WCI  11
LANSING*       CLOUDY    23  17  79 W13G23    30.40S WCI  11
WAUKEGAN       CLEAR     23  15  71 W6        30.34R WCI  16
DUPAGE AIRPORT CLOUDY    23  15  71 W10       30.39S WCI  12
KANKAKEE*      MIX PCPN  23  15  71 NW15G23   30.43S WCI  10
WHEELING       CLOUDY    24  15  68 W12G20    30.39R WCI  13
NORTHERLY ISL    N/A     25  17  72 W15         N/A  WCI  13
$$

LMZ740>746-090300-
SOUTHERN LAKE MICHIGAN

STATION/POSITION SKY/WX   TEMP    WIND        PRES    VSBY  WAVE
                          AIR SEA DIR/SP/G                  HT/PER
                          (F)     (DEG/KT/KT) (MB)    (MI)  (FT/S)
HARRISON CRIB              26     290/ 17/ 20   N/A
BURNHAM HARBOR             25     250/ 12/ 17   N/A
CALUMET HARBOR             23     270/ 12/ 22 1028.3S
BURNS HARBOR               26     280/ 23/ 28 1028.8R
$$

ILZ025>027-034>036-040-047-049-050-058-095>099-090300-
WEST-CENTRAL ILLINOIS

CITY           SKY/WX    TMP DP  RH WIND       PRES   REMARKS
QUINCY         CLEAR     19  12  74 W6        30.56R WCI  11
GALESBURG*     CLOUDY    21  15  76 W15       30.51R WCI   8
MACOMB*        CLOUDY    22  15  71 NW13      30.55S WCI  10
JACKSONVILLE*  PTCLDY    19  12  72 W6        30.56R WCI  11
$$

ILZ028>032-037-038-041>044-048-051>054-059>061-090300-
CENTRAL ILLINOIS

CITY           SKY/WX    TMP DP  RH WIND       PRES   REMARKS
PONTIAC        FLURRIES  24  19  81 W15       30.47R WCI  11
DECATUR        CLOUDY    20  12  71 NW15      30.52R WCI   6
PEORIA         CLOUDY    21  12  68 W12G21    30.52R WCI   9
LACON*         FLURRIES  22  16  78 W9        30.49R WCI  12
SPRINGFIELD    CLEAR     20  13  74 NW7       30.55R WCI  11
TAYLORVILLE    NOT AVBL
$$

ILZ033-039-045-046-055>057-062-063-090300-
EAST-CENTRAL ILLINOIS

CITY           SKY/WX    TMP DP  RH WIND       PRES   REMARKS
CHAMPAIGN      FLURRIES  22  13  68 W20       30.49R WCI   7
RANTOUL*       FLURRIES  24  15  71 NW18      30.48R WCI   9
MATTOON        CLOUDY    21  11  65 NW17G25   30.51R WCI   7
PARIS*         FLURRIES  21  15  77 W13G25    30.51R WCI   9
$$

ILZ079-100>102-090300-
SOUTHWEST ILLINOIS

CITY           SKY/WX    TMP DP  RH WIND       PRES   REMARKS
ALTON          CLOUDY    25  14  63 NW10      30.57R WCI  15
BELLEVILLE     MOCLDY    25  13  61 NW10      30.56R WCI  15
CAHOKIA*       MOCLDY    27  11  51 NW15      30.59R WCI  15
SPARTA*        CLEAR     24  15  68 NW5       30.58R WCI  18
$$

ILZ064>066-069>071-074>076-080>082-084>086-088>090-092>094-090300-
SOUTH-CENTRAL ILLINOIS

CITY           SKY/WX    TMP DP  RH WIND       PRES   REMARKS
CARBONDALE     CLEAR     24  15  68 NW7       30.57R WCI  16
CAIRO*         CLEAR     27  18  68 NW6       30.56R WCI  21
CENTRALIA*     CLOUDY    27  17  64 NW14G20   30.55R WCI  16
SALEM*         CLOUDY    28  14  57 NW14      30.54R WCI  16
METROPOLIS*    CLEAR     27  15  61 CALM      30.57R
$$

ILZ067-068-072-073-078-083-087-091-090300-
SOUTHEAST ILLINOIS

CITY           SKY/WX    TMP DP  RH WIND       PRES   REMARKS
LAWRENCEVILLE  CLOUDY    25  14  63 NW15      30.54R WCI  13
HARRISBURG*    CLEAR     25  16  68 NW6       30.57R WCI  18
ROBINSON*      CLOUDY    23  14  68 NW15      30.54R WCI  10
CARMI*         CLOUDY    27  18  67 NW13      30.54R WCI  16
$$

ABBREVIATIONS USED IN REMARKS
   TC - TEMPERATURE IN CELSIUS
  WCI - WIND CHILL INDEX
   HX - HEAT INDEX
  VSB - VISIBILITY
$$





USA.gov is the U.S. government's official web portal to all federal, state and local government web resources and services.